GSAT0201 (PRN E18)

Last updated on Feb. 26, 2020, 4:49 a.m. UTC

1 40128U 14050A   20056.20941194 -.00000107  00000-0  00000-0 0  9997
2 40128  50.5803   5.8904 1663012  95.6314 283.4589  1.85519040 35607
UTC
Height (km)
Latitude
Longitude
Inclination
Orbital Period
UTC large
Height (km)
Speed (km/s)
/
Latitude / Longitude
Inclination (degrees)
Orbital Period (minutes)
Azimuth
Elevation
Range (km)
Doppler Factor
iOS Compass Heading
iOS Angle

Next 30 passes for location: Hong Kong

Rise time Rise Azimuth (degrees) Set time Set Azimuth (degrees) Duration Max altitude (degrees)

No matching passes for this satellites